Regional Weather Roundup
Issued by NWS Cleveland, OH

Home | Current Version | Previous Version | Graphics & Text | Print | Product List | Glossary On
Versions: 1 2 3 4 5 6 7 8 9 10 11 12 13 14 15 16 17 18 19 20 21 22 23 24 25 26 27 28 29 30 31 32 33 34 35 36 37 38 39 40 41 42 43 44 45 46 47 48 49 50
000
ASUS41 KCLE 231410
RWRCLE
OHIO REGIONAL WEATHER ROUNDUP
NATIONAL WEATHER SERVICE CLEVELAND, OH
1000 AM EDT SAT JUL 23 2016

NOTE: "FAIR" INDICATES FEW OR NO CLOUDS BELOW 12,000 FEET WITH NO
SIGNIFICANT WEATHER AND/OR OBSTRUCTIONS TO VISIBILITY.

OHZ001>008-015>018-024>027-034-035-043-044-231500-
   NORTHWEST OHIO

CITY           SKY/WX    TMP DP  RH WIND       PRES   REMARKS
DEFIANCE       MOSUNNY   82  71  69 CALM      30.01S
FINDLAY        SUNNY     83  69  62 W6        30.01S
TOLEDO EXPRESS SUNNY     81  73  76 VRB5      30.00F
TOLEDO EXEC    SUNNY     82  72  71 NW3       30.01S
LIMA           SUNNY     80  74  81 VRB3      30.03R
$$

OHZ009>014-019>023-028>033-038-089-231500-
   NORTHEAST OHIO

CITY           SKY/WX    TMP DP  RH WIND       PRES   REMARKS
CLE-HOPKINS    MOSUNNY   84  72  67 SW3       30.01F
CLE-LAKEFRONT  MOSUNNY   81  74  79 W7        29.98F
CUY CO. ARPT   MOSUNNY   84  73  70 NW7       30.01S HX  91
LORAIN-ELYRIA  SUNNY     83  72  69 W3        30.01S
ASHTABULA      SUNNY     81  74  79 VRB3      30.01S
AKRON-CANTON   MOSUNNY   84  71  65 SW6       30.02S
WOOSTER        SUNNY     83  72  69 CALM      30.03S
MANSFIELD      SUNNY     83  73  72 N3        30.04R
YOUNGSTOWN     PTSUNNY   81  72  74 NW3       30.01F
$$

OHZ042-051>053-060>062-070>072-077>081-231500-
  SOUTHWEST OHIO

CITY           SKY/WX    TMP DP  RH WIND       PRES   REMARKS
CINC-COVINGTON MOSUNNY   80  75  84 SE3       30.05R
CINC-LUNKEN    PTSUNNY   78  75  90 VRB3      30.04S
HAMILTON       SUNNY     83  74  74 CALM      30.04R
DAYTON         MOSUNNY   81  72  74 NW6       30.05S
WRIGHT-PAT AFB SUNNY     80  75  85 VRB1      30.03S
DAYTON GENERAL SUNNY     82  71  69 CALM      30.03S
WILMINGTON     SUNNY     81  74  79 CALM      30.04S
$$

OHZ036-037-039>041-045>050-054>059-063>069-073>076-082>088-231500-
  CENTRAL AND SOUTHEAST OHIO

CITY           SKY/WX    TMP DP  RH WIND       PRES   REMARKS
COLUMBUS       MOSUNNY   79  72  79 S7        30.02S
OSU AIRPORT    SUNNY     83  73  72 CALM      30.03S
BOLTON FIELD   SUNNY     77  73  88 S5        30.04R
RICKENBACK AFB SUNNY     77  72  84 CALM      30.02F
NEWARK         SUNNY     80  73  79 CALM      30.02S
MARION         SUNNY     82  72  71 CALM      30.04R
LANCASTER      SUNNY     81  74  79 CALM      30.04R
ZANESVILLE     SUNNY     83  72  69 VRB3      30.03S
NEW PHILLY     MOSUNNY   82  72  71 VRB3      30.03R
$$




USA.gov is the U.S. government's official web portal to all federal, state and local government web resources and services.